Location: Boitzum
(52.1496°N, 9.6943°E)
Time: 05:49:07
(UTC+00:00)

BREEZE-M DEB (TANK) - Pass Details

Date: 13 January 2026
Orbit: 312 x 11317 km, 49.7° (Epoch: 18 February)

Event Time Altitude Azimuth Distance (km) Brightness Sun altitude
Exits shadow 06:10:57 15° 257° (WSW) 1,006 4.2 -10.8°
Maximum altitude 06:12:32 32° 196° (SSW) 572 3.5 -10.6°
Drops below altitude 10° 06:14:52 10° 128° (SE) 1,374 6.7 -10.2°
Sets 06:17:25 0° 118° (ESE) 2,638 9.1 -9.9°
